FW1417 Weather Reports


Display with metric or nautical units.
time (UTC)temp
F
wind
direction
speed
MPH
gust
MPH
rain 1hr
in
rain 24hr
in
rain mn
in
humidity
%
barometer
mb
20260510224706 65 161 2.0 3.0 0.00 0.00 0.00 76 1010.3
20260510224206 65 133 0.0 3.0 0.00 0.00 0.00 76 1010.2
20260510223706 65 155 1.0 3.0 0.00 0.00 0.00 77 1010.1
20260510223207 65 136 1.0 3.0 0.00 0.00 0.00 77 1010.2
20260510222707 65 120 2.0 3.0 0.00 0.03 0.00 77 1010.2
20260510222207 65 173 1.0 3.0 0.00 0.06 0.00 77 1010.3
20260510221706 64 148 2.0 3.0 0.00 0.07 0.00 77 1010.1
20260510221206 64 144 2.0 6.0 0.00 0.07 0.00 77 1010.1
20260510220706 64 166 1.0 6.0 0.00 0.07 0.00 77 1010.0
20260510220206 64 160 2.0 6.0 0.00 0.08 0.00 77 1010.1
20260510215707 64 146 1.0 3.0 0.00 0.12 0.00 77 1010.1
20260510215207 64 150 0.0 3.0 0.00 0.12 0.00 76 1010.2
20260510214206 64 167 3.0 8.0 0.00 0.12 0.00 75 1010.1
20260510213706 64 150 4.0 8.0 0.00 0.12 0.00 74 1010.1
20260510213207 65 142 4.0 8.0 0.00 0.12 0.00 74 1010.1
20260510212706 65 147 3.0 7.0 0.00 0.12 0.00 73 1010.0
20260510212206 65 178 1.0 7.0 0.00 0.12 0.00 73 1010.0
20260510211706 66 212 2.0 7.0 0.00 0.12 0.00 72 1009.9
20260510211206 66 171 2.0 7.0 0.00 0.12 0.00 71 1009.7
20260510210707 66 188 2.0 7.0 0.00 0.12 0.00 70 1009.4
20260510205706 67 251 3.0 9.0 0.00 0.12 0.00 69 1009.4
20260510205207 68 190 4.0 9.0 0.00 0.12 0.00 68 1009.3
20260510204706 69 175 2.0 9.0 0.00 0.12 0.00 67 1009.1
20260510204206 70 158 3.0 8.0 0.00 0.12 0.00 67 1009.0
20260510203707 70 175 3.0 6.0 0.00 0.12 0.00 66 1008.9
20260510203206 70 189 2.0 7.0 0.00 0.12 0.00 65 1008.9
20260510202706 71 217 1.0 7.0 0.00 0.12 0.00 65 1008.9
20260510202206 71 160 3.0 8.0 0.00 0.12 0.00 65 1008.8
20260510201705 71 138 5.0 8.0 0.00 0.13 0.00 64 1008.8
20260510201206 71 156 4.0 9.0 0.00 0.14 0.00 65 1008.7
20260510200207 72 160 5.0 10.0 0.00 0.15 0.00 63 1009.0
20260510195706 72 150 5.0 10.0 0.00 0.15 0.00 61 1008.9
20260510194707 73 158 3.0 8.0 0.00 0.15 0.00 60 1009.0
20260510194207 73 159 2.0 8.0 0.00 0.15 0.00 60 1009.0
20260510193206 72 134 3.0 8.0 0.00 0.15 0.00 60 1009.0
20260510192707 72 136 2.0 5.0 0.00 0.15 0.00 60 1009.1
20260510191707 72 148 2.0 6.0 0.00 0.15 0.00 62 1009.3
20260510191207 71 170 3.0 6.0 0.00 0.15 0.00 62 1009.4
20260510190706 71 183 3.0 7.0 0.00 0.16 0.00 62 1009.4
20260510190206 71 184 3.0 7.0 0.00 0.16 0.00 63 1009.4
20260510185706 70 141 3.0 7.0 0.00 0.17 0.00 64 1009.4
20260510184706 70 99 1.0 7.0 0.00 0.19 0.00 65 1009.6
20260510184206 69 128 1.0 7.0 0.00 0.20 0.00 66 1009.7
20260510183706 69 173 5.0 7.0 0.00 0.20 0.00 65 1009.6
20260510183206 70 156 2.0 7.0 0.00 0.21 0.00 64 1009.6
20260510182206 70 130 2.0 6.0 0.00 0.22 0.00 64 1009.5
20260510181706 70 118 1.0 6.0 0.00 0.22 0.00 66 1009.5
20260510181206 69 147 3.0 8.0 0.00 0.22 0.00 67 1009.6
20260510180207 68 155 2.0 9.0 0.00 0.22 0.00 68 1009.7
20260510175707 68 105 2.0 9.0 0.00 0.22 0.00 68 1009.7
20260510175206 67 136 5.0 9.0 0.00 0.22 0.00 69 1009.6
20260510174707 67 142 5.0 9.0 0.00 0.22 0.00 69 1009.6
20260510174206 67 168 5.0 9.0 0.00 0.22 0.00 69 1009.6
20260510173206 66 167 3.0 8.0 0.00 0.22 0.00 71 1009.6
20260510172206 66 155 3.0 6.0 0.00 0.22 0.00 71 1009.6
20260510171706 66 153 2.0 7.0 0.00 0.22 0.00 70 1009.6
20260510170707 65 166 3.0 7.0 0.00 0.22 0.00 73 1009.7
20260510170206 64 148 3.0 7.0 0.00 0.22 0.00 73 1009.7
20260510165706 64 135 4.0 10.0 0.00 0.22 0.00 73 1009.8
20260510165206 64 139 3.0 10.0 0.00 0.22 0.00 74 1009.8
20260510164206 63 153 3.0 8.0 0.00 0.22 0.00 75 1010.0
20260510163706 64 153 3.0 7.0 0.00 0.22 0.00 74 1010.1
20260510163206 63 153 3.0 9.0 0.00 0.22 0.00 74 1010.1
20260510162706 63 135 2.0 9.0 0.00 0.22 0.00 76 1010.2
20260510162206 63 137 5.0 10.0 0.00 0.22 0.00 76 1010.2
20260510161705 62 152 5.0 10.0 0.00 0.22 0.00 78 1010.1
20260510161206 61 147 5.0 9.0 0.00 0.22 0.00 79 1010.2
20260510160706 61 148 6.0 9.0 0.00 0.22 0.00 79 1010.1
20260510160206 61 149 6.0 9.0 0.00 0.22 0.00 79 1010.1
20260510155706 61 148 5.0 10.0 0.00 0.22 0.00 79 1010.2
20260510155206 61 152 5.0 10.0 0.00 0.22 0.00 79 1010.3
20260510154206 60 150 5.0 9.0 0.00 0.22 0.00 80 1010.3
20260510153705 60 173 5.0 9.0 0.00 0.22 0.00 80 1010.4
20260510153206 60 150 5.0 9.0 0.00 0.22 0.00 80 1010.4
20260510152707 60 129 3.0 8.0 0.00 0.22 0.00 82 1010.3
20260510152205 59 147 4.0 8.0 0.00 0.22 0.00 82 1010.4
20260510151706 59 145 5.0 7.0 0.00 0.22 0.00 82 1010.4
20260510150706 59 139 3.0 8.0 0.00 0.22 0.00 83 1010.4
20260510150206 58 140 3.0 9.0 0.00 0.22 0.00 82 1010.3
20260510145706 58 167 3.0 9.0 0.00 0.22 0.00 83 1010.4
20260510145205 58 146 5.0 9.0 0.00 0.22 0.00 83 1010.3
20260510144706 58 138 2.0 6.0 0.00 0.22 0.00 84 1010.4
20260510143706 58 143 5.0 9.0 0.00 0.22 0.00 84 1010.2
20260510143206 58 139 5.0 9.0 0.00 0.22 0.00 82 1010.3
20260510142705 59 145 4.0 9.0 0.00 0.22 0.00 81 1010.2
20260510142206 59 96 3.0 7.0 0.00 0.22 0.00 82 1010.3
20260510141706 59 135 2.0 7.0 0.00 0.22 0.00 81 1010.3
20260510141205 58 149 2.0 6.0 0.00 0.22 0.00 82 1010.2
20260510140706 59 141 2.0 6.0 0.00 0.22 0.00 81 1010.2
20260510140206 59 140 2.0 5.0 0.00 0.22 0.00 81 1010.1
20260510135205 59 131 2.0 5.0 0.00 0.22 0.00 81 1010.1
20260510134706 59 197 2.0 6.0 0.00 0.22 0.00 81 1010.0
20260510134205 59 155 1.0 6.0 0.00 0.22 0.00 81 1010.0
20260510132705 59 129 2.0 5.0 0.00 0.22 0.00 81 1009.9
20260510132206 58 172 1.0 5.0 0.00 0.22 0.00 83 1010.0
20260510131206 58 153 1.0 3.0 0.00 0.22 0.00 83 1009.9
20260510130707 58 157 0.0 3.0 0.00 0.22 0.00 84 1009.8
20260510125206 57 209 0.0 5.0 0.00 0.22 0.00 85 1009.7
20260510124706 57 127 2.0 6.0 0.00 0.22 0.00 85 1009.6
20260510124205 57 142 2.0 6.0 0.00 0.22 0.00 85 1009.6
20260510123706 57 175 1.0 5.0 0.00 0.22 0.00 86 1009.6
20260510123206 57 154 2.0 5.0 0.00 0.22 0.00 86 1009.5
20260510122706 57 146 1.0 5.0 0.00 0.22 0.00 87 1009.5
20260510122206 57 147 2.0 5.0 0.00 0.22 0.00 87 1009.6
20260510121705 56 151 2.0 3.0 0.00 0.22 0.00 88 1009.5
20260510121205 56 182 0.0 3.0 0.00 0.22 0.00 88 1009.4
20260510120206 56 162 1.0 5.0 0.00 0.22 0.00 89 1009.4
20260510115205 56 171 1.0 5.0 0.00 0.22 0.00 89 1009.1
20260510114205 56 140 1.0 3.0 0.00 0.22 0.00 90 1009.2
20260510113706 56 208 2.0 3.0 0.00 0.22 0.00 90 1009.1
20260510113206 55 181 1.0 3.0 0.00 0.22 0.00 90 1009.1
20260510112706 55 177 1.0 3.0 0.00 0.22 0.00 91 1009.0
20260510112206 55 109 1.0 3.0 0.00 0.22 0.00 91 1008.8
20260510111705 55 115 1.0 3.0 0.00 0.22 0.00 91 1008.7
20260510110706 55 42 0.0 2.0 0.00 0.22 0.00 91 1008.5
20260510110205 54 34 0.0 2.0 0.00 0.22 0.00 91 1008.5
20260510105705 54 36 0.0 3.0 0.00 0.22 0.00 91 1008.4
20260510105205 54 22 2.0 3.0 0.00 0.22 0.00 91 1008.3
20260510104705 54 74 1.0 3.0 0.00 0.22 0.00 91 1008.4
20260510104205 54 23 1.0 3.0 0.00 0.22 0.00 91 1008.4
20260510103705 54 33 1.0 3.0 0.00 0.22 0.00 91 1008.5
20260510103205 54 322 1.0 3.0 0.00 0.22 0.00 91 1008.6
20260510102705 54 320 0.0 3.0 0.00 0.22 0.00 92 1008.6
20260510101205 54 358 2.0 7.0 0.00 0.22 0.00 91 1008.5
20260510100705 54 347 2.0 7.0 0.00 0.22 0.00 91 1008.5
20260510100206 54 36 2.0 5.0 0.00 0.22 0.00 91 1008.4
20260510095705 54 9 2.0 3.0 0.00 0.22 0.00 91 1008.5
20260510095205 54 5 1.0 3.0 0.00 0.22 0.00 91 1008.6
20260510094705 54 0 2.0 3.0 0.00 0.22 0.00 91 1008.6
20260510094205 54 30 2.0 5.0 0.00 0.22 0.00 92 1008.7
20260510093706 54 22 3.0 7.0 0.00 0.22 0.00 91 1008.8
20260510093205 54 34 2.0 7.0 0.00 0.22 0.00 92 1008.9
20260510092705 54 27 3.0 7.0 0.00 0.22 0.00 92 1009.0
20260510092206 54 49 2.0 5.0 0.00 0.22 0.00 92 1009.0
20260510091706 54 17 2.0 7.0 0.00 0.22 0.00 92 1009.2
20260510091205 54 26 3.0 7.0 0.00 0.22 0.00 92 1009.0
20260510090705 54 5 1.0 6.0 0.00 0.22 0.00 92 1009.0
20260510085205 54 355 3.0 7.0 0.00 0.22 0.00 92 1008.9
20260510084706 54 309 4.0 7.0 0.00 0.22 0.00 92 1009.0
20260510084206 54 293 3.0 8.0 0.00 0.22 0.00 92 1009.0
20260510083705 54 13 3.0 8.0 0.00 0.22 0.00 92 1008.8
20260510083205 54 325 2.0 5.0 0.00 0.22 0.00 92 1008.8
20260510082705 54 330 0.0 3.0 0.00 0.22 0.00 92 1008.4
20260510082205 54 16 1.0 3.0 0.00 0.22 0.00 92 1008.2
20260510081705 54 10 1.0 3.0 0.00 0.22 0.00 92 1008.2
20260510081205 54 355 0.0 1.0 0.00 0.22 0.00 92 1008.1
20260510080705 54 355 0.0 3.0 0.00 0.22 0.00 92 1008.2
20260510080205 54 355 0.0 3.0 0.00 0.22 0.00 92 1008.1
20260510075705 54 350 1.0 3.0 0.00 0.22 0.00 92 1008.1
20260510075205 54 323 1.0 2.0 0.00 0.22 0.00 92 1008.0
20260510074705 54 5 1.0 3.0 0.00 0.22 0.00 92 1008.0
20260510074205 54 5 1.0 3.0 0.00 0.22 0.00 92 1007.9
20260510073705 54 24 2.0 3.0 0.00 0.22 0.00 92 1007.9
20260510073205 54 26 1.0 5.0 0.00 0.22 0.00 92 1007.9
20260510072706 54 5 1.0 5.0 0.00 0.22 0.00 92 1007.9
20260510072206 54 20 3.0 5.0 0.00 0.22 0.00 92 1007.9
20260510071705 54 26 1.0 3.0 0.00 0.22 0.00 92 1008.0
20260510071205 54 355 1.0 3.0 0.00 0.22 0.00 92 1008.0
20260510070705 54 11 1.0 3.0 0.00 0.22 0.00 91 1008.0
20260510070205 54 165 0.0 2.0 0.00 0.22 0.00 91 1008.1
20260510065705 54 165 0.0 2.0 0.00 0.22 0.00 91 1008.1
20260510064705 54 165 0.0 1.0 0.00 0.22 0.00 91 1008.0
20260510064205 54 165 0.0 2.0 0.00 0.22 0.00 91 1008.0
20260510063705 54 165 1.0 2.0 0.00 0.22 0.00 91 1007.9
20260510063205 54 130 0.0 2.0 0.00 0.22 0.00 91 1007.8
20260510062705 54 132 1.0 2.0 0.00 0.22 0.00 91 1007.7
20260510062205 54 139 1.0 2.0 0.00 0.22 0.00 91 1007.6
20260510061705 54 137 0.0 1.0 0.00 0.22 0.00 91 1007.6
20260510061205 54 137 0.0 1.0 0.00 0.22 0.00 91 1007.6
20260510060705 54 137 0.0 1.0 0.00 0.22 0.00 91 1007.6
20260510060205 54 137 0.0 1.0 0.00 0.22 0.00 90 1007.7
20260510055705 54 137 0.0 2.0 0.00 0.22 0.00 90 1007.7
20260510055205 54 137 0.0 3.0 0.00 0.22 0.00 90 1007.8
20260510054205 54 136 1.0 2.0 0.00 0.22 0.00 90 1007.9
20260510053705 54 136 0.0 1.0 0.00 0.22 0.00 90 1007.9
20260510053205 54 136 0.0 1.0 0.00 0.22 0.00 90 1007.9
20260510052705 54 136 0.0 1.0 0.00 0.22 0.00 90 1007.8
20260510052206 54 136 0.0 1.0 0.00 0.22 0.00 89 1007.7
20260510051706 54 136 0.0 0.0 0.00 0.22 0.00 90 1007.9
20260510051205 54 136 0.0 2.0 0.00 0.22 0.00 90 1007.9
20260510050705 54 136 0.0 2.0 0.00 0.22 0.00 90 1008.0
20260510050208 54 136 1.0 2.0 0.00 0.22 0.00 89 1008.0
20260510045706 54 129 1.0 2.0 0.00 0.22 0.00 89 1008.0
20260510045206 54 126 0.0 2.0 0.00 0.22 0.00 89 1008.2
20260510044706 54 116 0.0 2.0 0.00 0.22 0.00 89 1008.1
20260510044206 54 116 0.0 2.0 0.00 0.22 0.00 89 1008.1
20260510043707 55 115 0.0 1.0 0.00 0.22 0.00 89 1008.0
20260510043207 55 116 0.0 1.0 0.00 0.22 0.00 89 1008.1
20260510042707 55 115 0.0 1.0 0.00 0.22 0.00 89 1008.1
20260510042207 55 116 0.0 1.0 0.00 0.22 0.00 89 1008.0
20260510041707 55 116 0.0 0.0 0.00 0.22 0.00 89 1008.0
20260510040708 55 116 0.0 0.0 0.00 0.22 0.00 88 1007.9
20260510040207 55 115 0.0 0.0 0.00 0.22 0.00 88 1007.9
20260510035706 55 116 0.0 0.0 0.00 0.22 0.22 88 1007.8
20260510035206 55 116 0.0 0.0 0.00 0.22 0.22 88 1007.7
20260510033707 55 115 0.0 0.0 0.00 0.22 0.22 88 1007.6
20260510032706 55 116 0.0 1.0 0.00 0.22 0.22 88 1007.5
20260510032206 55 116 0.0 1.0 0.00 0.22 0.22 88 1007.6
20260510031706 55 116 0.0 0.0 0.00 0.22 0.22 88 1007.5
20260510031206 55 116 0.0 0.0 0.00 0.22 0.22 88 1007.5
20260510030706 55 116 0.0 0.0 0.00 0.22 0.22 88 1007.5
20260510025706 56 116 0.0 0.0 0.00 0.22 0.22 88 1007.6
20260510025206 56 115 0.0 0.0 0.00 0.22 0.22 88 1007.5
20260510024706 56 116 0.0 0.0 0.00 0.22 0.22 88 1007.6
20260510024206 56 115 0.0 0.0 0.00 0.22 0.22 88 1007.6
20260510023706 56 116 0.0 2.0 0.00 0.22 0.22 88 1007.7
20260510023206 56 116 0.0 2.0 0.00 0.22 0.22 88 1007.7
20260510022707 56 116 0.0 2.0 0.00 0.22 0.22 88 1007.6
20260510022206 56 116 0.0 2.0 0.00 0.22 0.22 88 1007.5
20260510021706 56 115 1.0 2.0 0.00 0.22 0.22 88 1007.6
20260510020706 56 116 0.0 2.0 0.00 0.22 0.22 88 1007.6
20260510020207 56 116 0.0 2.0 0.00 0.22 0.22 88 1007.7
20260510015706 56 116 0.0 2.0 0.00 0.22 0.22 88 1007.7
20260510015206 56 116 0.0 1.0 0.00 0.22 0.22 88 1007.6
20260510014706 56 116 0.0 1.0 0.00 0.22 0.22 88 1007.6
20260510014206 56 122 0.0 1.0 0.00 0.22 0.22 88 1007.6
20260510013706 56 122 0.0 2.0 0.00 0.22 0.22 88 1007.6
20260510013206 56 122 1.0 2.0 0.00 0.22 0.22 88 1007.7
20260510012706 56 101 0.0 3.0 0.00 0.22 0.22 88 1007.5
20260510012206 56 101 1.0 3.0 0.00 0.22 0.22 88 1007.4
20260510011706 56 167 2.0 3.0 0.00 0.22 0.22 88 1007.3
20260510011206 56 85 0.0 3.0 0.00 0.22 0.22 88 1007.2
20260510010706 56 121 1.0 3.0 0.00 0.22 0.22 88 1007.2
20260510010207 56 144 2.0 3.0 0.00 0.22 0.22 88 1006.9
20260510005706 56 123 0.0 3.0 0.00 0.22 0.22 88 1007.0
20260510005207 56 146 1.0 3.0 0.00 0.22 0.22 88 1006.9
20260510004708 56 86 1.0 3.0 0.00 0.22 0.22 87 1007.0
20260510004206 56 101 0.0 2.0 0.00 0.22 0.22 87 1007.0
20260510003706 57 341 0.0 1.0 0.00 0.22 0.22 87 1006.9
20260510003206 57 341 0.0 0.0 0.00 0.22 0.22 87 1006.9
20260510002706 57 341 0.0 1.0 0.00 0.22 0.22 87 1006.8
20260510001207 57 329 1.0 2.0 0.00 0.22 0.22 87 1006.9
20260510000706 57 329 0.0 2.0 0.00 0.22 0.22 87 1006.8
20260509235706 57 320 0.0 1.0 0.00 0.22 0.22 87 1006.7
20260509234206 57 312 1.0 3.0 0.00 0.22 0.22 87 1006.7
20260509233706 57 327 0.0 2.0 0.00 0.22 0.22 87 1006.7
20260509232706 57 12 0.0 2.0 0.00 0.22 0.22 87 1006.5
20260509232206 57 26 0.0 3.0 0.01 0.22 0.22 87 1006.6
20260509231706 57 47 1.0 3.0 0.03 0.22 0.22 87 1006.6
20260509231206 57 79 1.0 3.0 0.07 0.22 0.22 86 1006.6
20260509230706 57 5 0.0 3.0 0.07 0.22 0.22 86 1006.6
20260509230206 57 5 1.0 3.0 0.07 0.22 0.22 86 1006.7
20260509225706 57 23 0.0 2.0 0.08 0.22 0.22 86 1006.8